Voltar ao catálogo

STARLINK-36335

AtivoComunicaçõesSSO
NORAD 68015·PAYLOAD·🇺🇸 United States

Lançado Mar 1, 2026 de Vandenberg Space Force Base

Loading…

Próximas Passagens (próximas 24 horas)

TLE

AtualizadoSource: CelesTrak SupGP

Época: Sep 14, 2026, 21:17 UTC

1 68015C 26040A   26257.88729167 -.00036635  00000+0 -11372-2 0  2579
2 68015  97.2847 205.2268 0001766  91.5740 227.0066 15.33457627    17

Acompanhe STARLINK-36335 em tempo real com AllMySat

Download on the App Store